Fort Stewart, GA

2:30 PM EST on December 06, 2016 (GMT -0500)
Wright Army Air Field

Weather History for KLHW - February, 2015

Change the Weather History Date:

Tuesday, February 3, 2015

  Actual Average Record
Temperature  
Mean Temperature 42 °F -  
Max Temperature 53 °F 65 °F 85 °F (1990)
Min Temperature 30 °F 42 °F 22 °F (1980)
Degree Days  
Heating Degree Days 24    
Moisture  
Dew Point 27 °F    
Average Humidity 62    
Maximum Humidity 89    
Minimum Humidity 30    
Precipitation  
Precipitation 0.00 in - - ()
Sea Level Pressure  
Sea Level Pressure 30.31 in    
Wind  
Wind Speed 4 mph (NNE)    
Max Wind Speed 7 mph    
Max Gust Speed -    
Visibility 10 miles    
Events      
Averages and records for this station are not official NWS values.
T = Trace of Precipitation, MM = Missing Value Source: NWS Daily Summary

Daily Weather History Graph

Daily Weather History Graph

Search for Another Location

Airport or City:

Trip Planner

Search our weather history database for the weather conditions in past years. The results will help you decide how hot, cold, wet, or windy it might be!

Date:

Astronomy

Feb. 03, 2015 Rise Set
Actual Time 7:18 AM EST 6:02 PM EST
Civil Twilight 6:52 AM EST 6:27 PM EST
Nautical Twilight 6:23 AM EST 6:56 PM EST
Astronomical Twilight 5:55 AM EST 7:25 PM EST
Moon 6:03 PM EST (2/3) 6:48 AM EST (2/3)
Length of Visible Light 11h 34m
Length of Day
10h 43m
Full, 100% of the Moon is Illuminated
Feb 3
Full
Feb 3
Full
Feb 11
Last Quarter
Feb 18
New
Feb 25
First Quarter

Hourly Weather History & Observations

Time (EST) Temp. Windchill Dew Point Humidity Pressure Visibility Wind Dir Wind Speed Gust Speed Precip Events Conditions
12:58 AM 36.7 °F 32.0 °F 25.9 °F 65% 30.20 in 10.0 mi NNW 5.8 mph - N/A   Clear
1:58 AM 35.4 °F 31.5 °F 26.1 °F 69% 30.22 in 10.0 mi NW 4.6 mph - N/A   Clear
2:58 AM 33.6 °F 29.4 °F 25.7 °F 73% 30.23 in 10.0 mi NNW 4.6 mph - N/A   Clear
3:58 AM 33.6 °F 27.5 °F 25.0 °F 71% 30.23 in 10.0 mi NNW 6.9 mph - N/A   Clear
4:58 AM 32.4 °F 26.9 °F 24.8 °F 74% 30.25 in 10.0 mi NNW 5.8 mph - N/A   Clear
5:58 AM 31.1 °F 25.4 °F 24.4 °F 76% 30.28 in 10.0 mi North 5.8 mph - N/A   Clear
6:58 AM 30.4 °F - 24.1 °F 77% 30.32 in 10.0 mi Calm Calm - N/A   Clear
7:58 AM 30.0 °F - 25.7 °F 84% 30.35 in 10.0 mi NNW 2.3 mph - N/A   Clear
8:58 AM 33.6 °F 30.6 °F 25.7 °F 73% 30.35 in 10.0 mi NNE 3.5 mph - N/A   Partly Cloudy
9:58 AM 40.1 °F 36.9 °F 23.9 °F 52% 30.37 in 10.0 mi ENE 4.6 mph - N/A   Clear
10:58 AM 44.1 °F 40.8 °F 21.4 °F 41% 30.37 in 10.0 mi NNE 5.8 mph - N/A   Clear
11:58 AM 48.0 °F - 21.9 °F 36% 30.36 in 10.0 mi Calm Calm - N/A   Clear
12:58 PM 51.3 °F - 22.3 °F 32% 30.34 in 10.0 mi Variable 1.2 mph - N/A   Mostly Cloudy
1:58 PM 52.3 °F - 22.1 °F 31% 30.31 in 10.0 mi Variable 3.5 mph - N/A   Partly Cloudy
2:58 PM 53.2 °F - 22.5 °F 30% 30.29 in 4.0 mi Calm Calm - N/A   Haze
3:58 PM 52.9 °F - 25.2 °F 34% 30.29 in 10.0 mi NNE 5.8 mph - N/A   Mostly Cloudy
4:58 PM 51.6 °F - 24.6 °F 35% 30.31 in 10.0 mi ENE 4.6 mph - N/A   Mostly Cloudy
5:58 PM 47.1 °F - 33.1 °F 58% 30.32 in 10.0 mi ESE 5.8 mph - N/A   Scattered Clouds
6:58 PM 43.9 °F 41.3 °F 33.4 °F 67% 30.35 in 10.0 mi ESE 4.6 mph - N/A   Partly Cloudy
7:58 PM 42.4 °F - 33.4 °F 70% 30.35 in 10.0 mi East 2.3 mph - N/A   Mostly Cloudy
8:58 PM 40.5 °F - 32.5 °F 73% 30.35 in 10.0 mi Calm Calm - N/A   Partly Cloudy
9:58 PM 36.0 °F - 32.4 °F 87% 30.35 in 10.0 mi Calm Calm - N/A   Clear
10:58 PM 35.8 °F - 32.0 °F 86% 30.34 in 10.0 mi Calm Calm - N/A   Overcast
11:58 PM 34.9 °F - 32.0 °F 89% 30.34 in 10.0 mi Calm Calm - N/A   Scattered Clouds